Location: Aniagüita
(10.0946°N, 66.9708°W)
Time: 15:42:23
(UTC+00:00)

CZ-2C R/B - Pass Details

Date: 30 June 2022
Orbit: 380 x 546 km, 35.0° (Epoch: 06 August)

Event Time Altitude Azimuth Distance (km) Brightness Sun altitude
Rises 23:33:16 0° 309° (NW) 2,689 6.7 -9.9°
Reaches altitude 10° 23:35:34 10° 311° (NW) 1,787 5.3 -10.4°
Maximum altitude 23:39:41 69° 35° (NE) 560 1.3 -11.3°
Enters shadow 23:42:33 18° 116° (ESE) 1,302 2.6 -11.9°
